This is the latest recevied weather packets stored in our database for station/object DO2MIB-1. If no packets are shown the sender has not sent any weather packets the latest 10 day(s).
| Time | Temp. | Humidity | Pressure | Rain* | Wind** | Luminosity | Snow |
|---|---|---|---|---|---|---|---|
| 1778325637 | 25° C | 28% | 0 hPa | - | 0 m/s | - | - |
| 1778325604 | 24.44° C | 28% | 0 hPa | - | 0 m/s | - | - |
| 1778325422 | 24.44° C | 29% | 0 hPa | - | 0 m/s | - | - |
| 1778324926 | 21.67° C | 31% | 0 hPa | - | 0 m/s | - | - |
| 1778324744 | 21.11° C | 30% | 0 hPa | - | 0 m/s | - | - |
| 1778324611 | 25° C | 29% | 0 hPa | - | 0 m/s | - | - |
| 1778323883 | 24.44° C | 31% | 0 hPa | - | 0 m/s | - | - |
| 1778323850 | 24.44° C | 29% | 0 hPa | - | 0 m/s | - | - |
| 1778323784 | 22.78° C | 30% | 0 hPa | - | 0 m/s | - | - |
| 1778323718 | 21.11° C | 30% | 0 hPa | - | 0 m/s | - | - |
| 1778323221 | 24.44° C | 30% | 0 hPa | - | 0 m/s | - | - |
| 1778322923 | 24.44° C | 30% | 0 hPa | - | 0 m/s | - | - |
| 1778322890 | 24.44° C | 29% | 0 hPa | - | 0 m/s | - | - |
| 1778322824 | 23.89° C | 30% | 0 hPa | - | 0 m/s | - | - |
| 1778322675 | 24.44° C | 29% | 0 hPa | - | 0 m/s | - | - |
| 1778322559 | 24.44° C | 28% | 0 hPa | - | 0 m/s | - | - |
| 1778322526 | 24.44° C | 30% | 0 hPa | - | 0 m/s | - | - |
| 1778321914 | 24.44° C | 28% | 0 hPa | - | 0 m/s | - | - |
| 1778321699 | 23.89° C | 28% | 0 hPa | - | 0 m/s | - | - |
| 1778321070 | 23.89° C | 31% | 0 hPa | - | 0 m/s | - | - |
| 1778320938 | 23.33° C | 30% | 0 hPa | - | 0 m/s | - | - |
| 1778320640 | 23.89° C | 30% | 0 hPa | - | 0 m/s | - | - |
| 1778320359 | 22.78° C | 31% | 0 hPa | - | 0 m/s | - | - |
| 1778320259 | 20.56° C | 29% | 0 hPa | - | 0 m/s | - | - |
| 1778320210 | 23.33° C | 30% | 0 hPa | - | 0 m/s | - | - |
* Rain since midnight (hover to see other rain measurements)
** Current wind speed in m/s (hover to see current wind gust speed)